Location: Mountain_View
(35.6670°N, 81.4000°W)
Time: 18:40:24
(UTC-04:00)

Amateur Radio Satellites - All Passes

Search period start: 27 April 2017 18:10
Search period end: 28 April 2017 18:10
Location: Mountain_View, 35.6670°N, 81.4000°W

Satellite Date Start Highest point End Downlink Frequencies (MHz)
Time Altitude Azimuth
YUBILEINY 27 Apr 18:15:51 18:21:49 21° 279° (W) 18:27:49 435.215
STARS 27 Apr 18:16:31 18:20:42 44° 100° (E) 18:24:51 437.465
CUBESAT XI-V 27 Apr 18:35:38 18:40:09 46° 287° (WNW) 18:44:38 437.345
XW-2D 27 Apr 18:50:15 18:53:59 83° 75° (ENE) 18:57:44 145.860 - 145.880
HO-68 27 Apr 18:53:14 18:58:46 25° 62° (ENE) 19:04:19 435.675
XW-2B 27 Apr 18:57:14 19:00:57 82° 260° (W) 19:04:42 145.730 - 145.750
KAITUO 1B 27 Apr 19:04:24 19:08:04 84° 259° (W) 19:11:47 145.475/437.950
XW-2C 27 Apr 19:09:17 19:12:56 54° 260° (W) 19:16:37 145.795 - 145.815
LilacSat-2 27 Apr 19:09:31 19:13:10 50° 260° (W) 19:16:51 437.200
DOVE 4 27 Apr 19:14:54 19:19:49 38° 263° (W) 19:24:42 437.250
KKS-1 27 Apr 19:25:46 19:27:49 13° 295° (WNW) 19:29:52 437.445
SRMSAT 27 Apr 19:30:05 19:31:46 11° 166° (SSE) 19:33:26 437.500
NO-84 27 Apr 19:32:35 19:36:27 74° 131° (SE) 19:39:59 435.350 FM
CUTE-I 27 Apr 19:32:51 19:37:56 45° 260° (W) 19:43:03 437.470
XW-2F 27 Apr 19:34:38 19:37:45 26° 263° (W) 19:40:54 145.980 - 146.000
O/OREOS (USA 219) 27 Apr 19:36:04 19:37:07 11° 55° (NE) 19:38:10 437.305
XW-2A 27 Apr 19:36:16 19:39:09 27° 73° (ENE) 19:42:03 145.665 - 145.685
STRAND 1 27 Apr 19:36:55 19:39:17 13° 92° (E) 19:41:39 437.568
NUDT-PHONESAT 27 Apr 19:43:01 19:46:02 24° 264° (W) 19:49:05 437.300
JUGNU 27 Apr 19:51:55 19:55:30 16° 183° (S) 19:59:06 437.505
STARS 27 Apr 19:54:17 19:56:38 14° 294° (WNW) 19:58:58 437.465
CUBEBUG 2 27 Apr 19:55:15 19:58:44 24° 71° (ENE) 20:02:09 437.445
AAUSAT CUBESAT 2 27 Apr 20:02:23 20:05:15 18° 69° (ENE) 20:08:07 437.432
RS-15 27 Apr 20:12:44 20:17:40 14° 264° (W) 20:22:32 29.354- 29.394
CUTE 1.7 + AOD 2 27 Apr 20:13:43 20:17:55 89° 257° (WSW) 20:22:10 437.475
SEEDS 27 Apr 20:31:39 20:35:50 86° 265° (W) 20:40:04 437.485
ZACube-1 27 Apr 20:33:11 20:36:18 21° 70° (ENE) 20:39:24 437.345
M-CUBED/EXP-1 PRIME 27 Apr 20:34:54 20:38:36 33° 102° (ESE) 20:42:00 437.505
HO-68 27 Apr 20:38:59 20:45:58 57° 258° (WSW) 20:53:01 435.675
AO-73 27 Apr 20:39:17 20:42:29 22° 70° (ENE) 20:45:40 145.935
Oscar 11 27 Apr 20:53:01 20:56:37 27° 71° (ENE) 21:00:13 .
XW-2A 27 Apr 21:10:43 21:11:57 12° 267° (W) 21:13:11 145.665 - 145.685
O/OREOS (USA 219) 27 Apr 21:12:29 21:17:02 71° 251° (WSW) 21:21:32 437.305
NO-84 27 Apr 21:12:31 21:14:16 13° 326° (NW) 21:15:58 435.350 FM
STRAND 1 27 Apr 21:13:47 21:18:47 60° 286° (WNW) 21:23:49 437.568
UWE-3 27 Apr 21:15:14 21:19:29 64° 259° (W) 21:23:40 435.000/436.395/437.385
SRMSAT 27 Apr 21:16:30 21:20:10 17° 176° (S) 21:23:49 437.500
CUBEBUG 2 27 Apr 21:31:39 21:35:14 24° 264° (W) 21:38:44 437.445
AAUSAT CUBESAT 2 27 Apr 21:36:49 21:40:28 30° 263° (W) 21:44:08 437.432
JUGNU 27 Apr 21:41:54 21:43:44 11° 193° (SSW) 21:45:34 437.505
ZACube-1 27 Apr 22:08:51 22:12:25 26° 263° (W) 22:15:56 437.345
DELFI C3 27 Apr 22:09:56 22:13:49 58° 75° (ENE) 22:17:45 145.870
M-CUBED/EXP-1 PRIME 27 Apr 22:10:08 22:12:41 16° 299° (WNW) 22:15:07 437.505
AO-73 27 Apr 22:15:08 22:18:35 25° 264° (W) 22:22:01 145.935
BEESAT 3 27 Apr 22:16:52 22:19:11 15° 49° (NE) 22:21:27 437.485
AO-85 27 Apr 22:26:12 22:30:12 79° 242° (WSW) 22:34:26 145.980
TIGRISAT 27 Apr 22:27:13 22:29:18 13° 93° (E) 22:31:24 435.000
Oscar 11 27 Apr 22:29:22 22:32:41 22° 265° (W) 22:36:00 .
OBJECT BX 27 Apr 22:33:43 22:37:21 89° 57° (ENE) 22:41:00 145.990 - 145.960
UNISAT 6 27 Apr 22:47:30 22:51:06 26° 96° (E) 22:54:44 437.425
SRMSAT 27 Apr 23:05:08 23:08:35 16° 187° (S) 23:12:02 437.500
FO-29 27 Apr 23:06:26 23:11:12 33° 98° (E) 23:16:16 435.910
PRISM 27 Apr 23:28:06 23:32:11 59° 285° (WNW) 23:36:13 437.425
LO-87 27 Apr 23:33:30 23:37:05 59° 76° (ENE) 23:40:40 145.935 - 145.965
AIST 2D 27 Apr 23:46:42 23:48:06 12° 93° (E) 23:49:29 435.315
BEESAT 3 27 Apr 23:53:09 23:57:00 46° 245° (WSW) 00:00:48 437.485
BEESAT 2 27 Apr 23:54:40 23:58:42 60° 60° (ENE) 00:02:40 435.950
TIGRISAT 28 Apr 00:02:05 00:06:09 43° 286° (WNW) 00:10:16 435.000
ESTCUBE 1 28 Apr 00:02:40 00:07:08 71° 75° (ENE) 00:11:38 437.505/2401.250
VELOX 1 28 Apr 00:11:23 00:14:53 23° 69° (ENE) 00:18:24 145.980
POLYITAN 1 28 Apr 00:21:17 00:24:16 19° 95° (E) 00:27:15 437.675
UNISAT 6 28 Apr 00:24:17 00:27:40 23° 290° (WNW) 00:31:05 437.425
QB50P2 28 Apr 00:27:34 00:31:02 24° 96° (E) 00:34:28 145.880/145.840
NANOSAT C BR1 28 Apr 00:47:53 00:51:44 35° 98° (E) 00:55:34 145.865
FO-29 28 Apr 00:51:54 00:56:10 26° 291° (WNW) 01:00:40 435.910
DX 1 28 Apr 00:58:42 01:02:27 28° 70° (ENE) 01:06:12 434.975-435.025
SPROUT 28 Apr 01:03:16 01:07:32 85° 77° (ENE) 01:11:49 437.525
EO-79 28 Apr 01:16:16 01:20:28 90° 354° (N) 01:24:40 145.935-145.965
DUCHIFAT 1 28 Apr 01:16:42 01:20:53 73° 102° (ESE) 01:25:02 145.980
AIST 2D 28 Apr 01:18:14 01:21:22 31° 287° (WNW) 01:24:30 435.315
50 SAT 28 Apr 01:32:19 01:35:44 62° 259° (W) 01:39:13 437.505
VELOX 1 28 Apr 01:47:21 01:51:09 28° 263° (W) 01:55:00 145.980
Oscar 19 28 Apr 01:47:39 01:50:49 16° 93° (E) 01:53:58 437.125/150
POLYITAN 1 28 Apr 01:56:24 02:00:02 29° 289° (WNW) 02:03:41 437.675
UKube-1 28 Apr 01:58:17 02:02:37 84° 256° (WSW) 02:06:58 .
Gurwin Techsat 1B 28 Apr 02:00:59 02:02:56 12° 91° (E) 02:04:53 435.225
QB50P2 28 Apr 02:03:22 02:06:41 23° 290° (WNW) 02:10:00 145.880/145.840
NO-84 28 Apr 02:11:23 02:11:48 10° 32° (NNE) 02:12:12 435.350 FM
BUGSAT 1 28 Apr 02:13:11 02:17:13 78° 282° (WNW) 02:21:12 437.445
PCSat 28 Apr 02:13:32 02:18:41 47° 111° (ESE) 02:23:51 145.827
NANOSAT C BR1 28 Apr 02:24:32 02:27:07 16° 292° (WNW) 02:29:43 145.865
ITUPSAT 1 28 Apr 02:28:41 02:31:25 15° 65° (ENE) 02:34:09 437.325
DX 1 28 Apr 02:35:14 02:38:34 21° 264° (W) 02:41:57 434.975-435.025
MOZHAYETS 4 28 Apr 03:05:30 03:08:21 17° 67° (ENE) 03:11:13
BEESAT 28 Apr 03:22:30 03:27:09 59° 74° (ENE) 03:31:50 436.000
YUBILEINY 28 Apr 03:23:01 03:27:13 15° 78° (ENE) 03:31:26 435.215
Oscar 19 28 Apr 03:25:21 03:30:23 51° 287° (WNW) 03:35:24 437.125/150
Gurwin Techsat 1B 28 Apr 03:38:01 03:43:19 70° 285° (WNW) 03:48:35 435.225
NO-84 28 Apr 03:46:47 03:49:36 57° 229° (SW) 03:52:22 435.350 FM
PCSat 28 Apr 03:58:04 04:02:17 23° 308° (NW) 04:06:32 145.827
CUBESAT XI-V 28 Apr 04:02:03 04:03:17 11° 64° (ENE) 04:04:30 437.345
ITUPSAT 1 28 Apr 04:04:12 04:08:47 49° 260° (W) 04:13:25 437.325
MOZHAYETS 4 28 Apr 04:40:52 04:45:09 41° 261° (W) 04:49:27
KKS-1 28 Apr 04:42:34 04:46:33 33° 71° (ENE) 04:50:33 437.445
ITAMSAT 1 28 Apr 04:54:06 04:59:18 89° 293° (WNW) 05:04:29 435.822/435.867
AO-7 28 Apr 04:57:04 05:05:23 69° 105° (ESE) 05:13:40 .
BEESAT 28 Apr 05:03:33 05:05:15 12° 268° (W) 05:06:58 436.000
STARS 28 Apr 05:10:21 05:14:06 28° 70° (ENE) 05:17:50 437.465
YUBILEINY 28 Apr 05:13:59 05:22:40 89° 100° (E) 05:31:26 435.215
SO-50 28 Apr 05:21:05 05:22:19 11° 107° (ESE) 05:23:33 436.795
CUBESAT XI-V 28 Apr 05:35:24 05:40:00 68° 259° (W) 05:44:40 437.345
RS-15 28 Apr 06:05:08 06:13:45 24° 100° (E) 06:22:29 29.354- 29.394
KKS-1 28 Apr 06:19:54 06:23:07 19° 265° (W) 06:26:21 437.445
XW-2D 28 Apr 06:28:07 06:28:56 11° 92° (E) 06:29:45 145.860 - 145.880
XW-2B 28 Apr 06:34:16 06:35:58 13° 93° (E) 06:37:40 145.730 - 145.750
KAITUO 1B 28 Apr 06:40:23 06:41:44 12° 93° (E) 06:43:06 145.475/437.950
XW-2C 28 Apr 06:45:23 06:48:04 18° 95° (E) 06:50:44 145.795 - 145.815
LilacSat-2 28 Apr 06:46:05 06:48:55 20° 95° (E) 06:51:46 437.200
STARS 28 Apr 06:46:56 06:50:22 22° 264° (W) 06:53:49 437.465
STRAND 1 28 Apr 06:50:06 06:52:59 15° 64° (ENE) 06:55:51 437.568
AO-7 28 Apr 06:51:04 06:57:24 25° 302° (WNW) 07:03:45 .
SO-50 28 Apr 06:57:36 07:02:12 66° 301° (WNW) 07:06:46 436.795
ISS 28 Apr 07:01:58 07:03:09 11° 127° (SE) 07:04:18 437.550
XW-2F 28 Apr 07:08:58 07:12:29 35° 98° (E) 07:15:59 145.980 - 146.000
NUDT-PHONESAT 28 Apr 07:15:38 07:19:03 33° 98° (E) 07:22:27 437.300
YUBILEINY 28 Apr 07:15:39 07:20:37 16° 295° (WNW) 07:25:38 435.215
M-CUBED/EXP-1 PRIME 28 Apr 07:16:54 07:20:57 31° 66° (ENE) 07:25:04 437.505
DOVE 4 28 Apr 07:16:59 07:21:32 79° 102° (ESE) 07:25:48 437.250
CUTE-I 28 Apr 07:52:30 07:57:51 88° 280° (W) 08:03:09 437.470
XW-2D 28 Apr 07:59:40 08:03:17 42° 286° (WNW) 08:06:54 145.860 - 145.880
CUTE 1.7 + AOD 2 28 Apr 08:02:14 08:05:22 20° 94° (E) 08:08:29 437.475
Tancredo 1 28 Apr 08:02:16 08:05:21 86° 137° (SE) 08:08:27 437.200
XW-2B 28 Apr 08:06:45 08:10:15 35° 287° (WNW) 08:13:45 145.730 - 145.750
HO-68 28 Apr 08:10:08 08:16:31 33° 97° (E) 08:22:50 435.675
KAITUO 1B 28 Apr 08:12:21 08:15:52 37° 286° (WNW) 08:19:23 145.475/437.950
RS-15 28 Apr 08:12:40 08:24:41 84° 300° (WNW) 08:37:09 29.354- 29.394
XW-2C 28 Apr 08:19:03 08:22:11 25° 288° (WNW) 08:25:20 145.795 - 145.815
SEEDS 28 Apr 08:19:07 08:22:12 19° 94° (E) 08:25:16 437.485
LilacSat-2 28 Apr 08:20:02 08:23:06 23° 289° (WNW) 08:26:12 437.200
STRAND 1 28 Apr 08:26:38 08:31:38 57° 259° (W) 08:36:40 437.568
XW-2A 28 Apr 08:32:58 08:36:13 44° 99° (E) 08:39:27 145.665 - 145.685
ISS 28 Apr 08:36:04 08:39:16 54° 321° (NW) 08:42:28 437.550
XW-2F 28 Apr 08:44:24 08:46:17 13° 292° (WNW) 08:48:09 145.980 - 146.000
NUDT-PHONESAT 28 Apr 08:50:49 08:52:37 13° 292° (WNW) 08:54:25 437.300
M-CUBED/EXP-1 PRIME 28 Apr 08:51:34 08:55:18 24° 260° (W) 08:59:07 437.505
UWE-3 28 Apr 09:07:40 09:11:20 29° 97° (E) 09:15:05 435.000/436.395/437.385
FO-29 28 Apr 09:20:10 09:21:30 11° 62° (ENE) 09:22:47 435.910
AAUSAT CUBESAT 2 28 Apr 09:21:09 09:25:13 48° 99° (E) 09:29:15 437.432
CUBEBUG 2 28 Apr 09:24:02 09:28:14 82° 102° (ESE) 09:32:30 437.445
CUTE 1.7 + AOD 2 28 Apr 09:37:27 09:41:11 29° 288° (WNW) 09:44:54 437.475
Tancredo 1 28 Apr 09:40:17 09:41:37 12° 334° (NNW) 09:42:59 437.200
O/OREOS (USA 219) 28 Apr 09:43:50 09:47:03 19° 100° (E) 09:50:16 437.305
UNISAT 6 28 Apr 09:44:22 09:47:08 17° 68° (ENE) 09:49:52 437.425
SEEDS 28 Apr 09:54:10 09:57:52 29° 289° (WNW) 10:01:33 437.485
HO-68 28 Apr 09:57:35 10:04:13 42° 293° (WNW) 10:10:51 435.675
ZACube-1 28 Apr 09:58:48 10:03:02 67° 101° (ESE) 10:07:20 437.345
AO-73 28 Apr 10:04:37 10:08:51 71° 102° (ESE) 10:13:10 145.935
PRISM 28 Apr 10:13:53 10:17:58 62° 76° (ENE) 10:22:07 437.425
Oscar 11 28 Apr 10:18:06 10:22:28 84° 103° (ESE) 10:26:49 .
RS-15 28 Apr 10:29:28 10:39:18 27° 325° (NW) 10:49:19 29.354- 29.394
UWE-3 28 Apr 10:44:33 10:47:36 20° 290° (WNW) 10:50:42 435.000/436.395/437.385
TIGRISAT 28 Apr 10:57:18 11:01:41 75° 258° (WSW) 11:06:00 435.000
AAUSAT CUBESAT 2 28 Apr 10:58:34 11:00:13 12° 294° (WNW) 11:01:51 437.432
FO-29 28 Apr 10:59:30 11:05:57 87° 76° (ENE) 11:11:40 435.910
PCSat 28 Apr 11:04:49 11:08:59 22° 52° (NE) 11:13:07 145.827
POLYITAN 1 28 Apr 11:13:34 11:14:05 10° 65° (ENE) 11:14:37 437.675
QB50P2 28 Apr 11:18:38 11:20:42 13° 66° (ENE) 11:22:45 145.880/145.840
UNISAT 6 28 Apr 11:19:29 11:23:32 37° 261° (W) 11:27:33 437.425
O/OREOS (USA 219) 28 Apr 11:21:58 11:26:08 34° 295° (WNW) 11:30:22 437.305
DELFI C3 28 Apr 11:24:23 11:28:18 54° 285° (WNW) 11:32:11 145.870
NANOSAT C BR1 28 Apr 11:37:45 11:40:40 19° 69° (ENE) 11:43:36 145.865
OBJECT BX 28 Apr 11:38:57 11:42:27 43° 285° (WNW) 11:45:55 145.990 - 145.960
AIST 2D 28 Apr 11:49:10 11:52:32 50° 75° (ENE) 11:55:54 435.315
ESTCUBE 1 28 Apr 11:58:58 12:02:09 19° 94° (E) 12:05:20 437.505/2401.250
EO-79 28 Apr 12:05:30 12:09:30 43° 73° (ENE) 12:13:30 145.935-145.965
DUCHIFAT 1 28 Apr 12:05:31 12:09:20 35° 72° (ENE) 12:13:08 145.980
LO-87 28 Apr 12:36:36 12:40:08 69° 284° (WNW) 12:43:39 145.935 - 145.965
AO-85 28 Apr 12:37:38 12:41:58 68° 118° (ESE) 12:46:04 145.980
POLYITAN 1 28 Apr 12:45:10 12:49:19 59° 259° (W) 12:53:28 437.675
PCSat 28 Apr 12:47:24 12:52:37 49° 249° (WSW) 12:57:48 145.827
FO-29 28 Apr 12:50:22 12:51:23 10° 268° (W) 12:52:21 435.910
QB50P2 28 Apr 12:52:02 12:56:04 44° 261° (W) 13:00:07 145.880/145.840
RS-15 28 Apr 12:52:12 12:58:19 14° 1° (N) 13:04:24 29.354- 29.394
SPROUT 28 Apr 12:52:53 12:55:43 17° 94° (E) 12:58:33 437.525
BUGSAT 1 28 Apr 12:59:36 13:03:34 45° 74° (ENE) 13:07:29 437.445
Oscar 19 28 Apr 13:01:46 13:05:15 19° 65° (ENE) 13:08:45 437.125/150
NANOSAT C BR1 28 Apr 13:12:25 13:16:09 30° 263° (W) 13:19:52 145.865
Gurwin Techsat 1B 28 Apr 13:18:50 13:21:59 16° 64° (ENE) 13:25:07 435.225
ESTCUBE 1 28 Apr 13:34:53 13:39:00 35° 288° (WNW) 13:43:06 437.505/2401.250
VELOX 1 28 Apr 13:39:25 13:43:49 68° 101° (E) 13:48:11 145.980
BEESAT 3 28 Apr 13:39:41 13:43:31 55° 116° (ESE) 13:47:25 437.485
DUCHIFAT 1 28 Apr 13:42:30 13:45:03 16° 266° (W) 13:47:37 145.980
EO-79 28 Apr 13:43:33 13:45:26 13° 267° (W) 13:47:19 145.935-145.965
BEESAT 2 28 Apr 13:43:56 13:46:53 20° 111° (ESE) 13:49:53 435.950
UKube-1 28 Apr 13:49:01 13:52:10 20° 95° (E) 13:55:18 .
AO-7 28 Apr 14:05:36 14:09:26 14° 51° (NE) 14:13:16 .
AO-85 28 Apr 14:21:22 14:22:43 11° 313° (NW) 14:24:03 145.980
DX 1 28 Apr 14:24:57 14:29:20 81° 102° (ESE) 14:33:39 434.975-435.025
SPROUT 28 Apr 14:27:53 14:31:39 32° 288° (WNW) 14:35:25 437.525
Tancredo 1 28 Apr 14:30:24 14:33:01 24° 34° (NE) 14:35:37 437.200
50 SAT 28 Apr 14:31:29 14:34:42 37° 286° (WNW) 14:37:54 437.505
ITAMSAT 1 28 Apr 14:33:49 14:35:30 12° 62° (ENE) 14:37:10 435.822/435.867
BUGSAT 1 28 Apr 14:37:40 14:39:06 12° 267° (W) 14:40:33 437.445
Oscar 19 28 Apr 14:39:12 14:44:09 47° 260° (W) 14:49:09 437.125/150
Gurwin Techsat 1B 28 Apr 14:56:10 15:01:23 58° 259° (W) 15:06:39 435.225
ISS 28 Apr 15:06:17 15:09:25 42° 38° (NE) 15:12:33 437.550
RS-15 28 Apr 15:07:05 15:17:10 28° 36° (NE) 15:26:53 29.354- 29.394
BEESAT 3 28 Apr 15:19:39 15:21:26 13° 313° (NW) 15:23:13 437.485
BEESAT 2 28 Apr 15:21:02 15:24:27 28° 306° (NW) 15:27:57 435.950
UKube-1 28 Apr 15:24:26 15:28:11 30° 290° (WNW) 15:31:55 .
BEESAT 28 Apr 15:26:25 15:29:45 19° 95° (E) 15:33:05 436.000
YUBILEINY 28 Apr 15:28:08 15:36:11 39° 75° (ENE) 15:44:13 435.215
SO-50 28 Apr 15:31:40 15:36:01 46° 57° (ENE) 15:40:21 436.795
AO-7 28 Apr 15:52:31 16:00:45 72° 70° (ENE) 16:09:00 .
Tancredo 1 28 Apr 16:06:15 16:08:51 25° 229° (SW) 16:11:27 437.200
ITUPSAT 1 28 Apr 16:07:20 16:12:00 51° 100° (E) 16:16:39 437.325
ITAMSAT 1 28 Apr 16:09:03 16:14:14 79° 256° (WSW) 16:19:27 435.822/435.867
MOZHAYETS 4 28 Apr 16:38:18 16:42:51 56° 101° (E) 16:47:22
ISS 28 Apr 16:43:45 16:45:37 14° 232° (SW) 16:47:29 437.550
BEESAT 28 Apr 17:03:13 17:07:37 38° 289° (WNW) 17:12:01 436.000
SO-50 28 Apr 17:13:26 17:16:03 15° 251° (WSW) 17:18:40 436.795
RS-15 28 Apr 17:19:18 17:31:35 88° 62° (ENE) 17:43:11 29.354- 29.394
YUBILEINY 28 Apr 17:24:54 17:32:54 41° 273° (W) 17:40:55 435.215
CUTE-I 28 Apr 17:34:56 17:37:18 13° 62° (ENE) 17:39:38 437.470
CUBESAT XI-V 28 Apr 17:34:57 17:39:19 37° 98° (E) 17:43:39 437.345
ITUPSAT 1 28 Apr 17:46:41 17:49:21 15° 295° (WNW) 17:52:02 437.325
AO-7 28 Apr 17:48:12 17:54:05 21° 266° (W) 18:00:00 .
JUGNU 28 Apr 17:48:44 17:52:05 16° 174° (S) 17:55:28 437.505
XW-2F 28 Apr 17:49:10 17:50:24 11° 67° (ENE) 17:51:38 145.980 - 146.000
NUDT-PHONESAT 28 Apr 17:54:49 17:55:26 10° 67° (ENE) 17:56:03 437.300
